星链-37410(STARLINK-37410)

导读

STARLINK-37410(NORAD编号68823)是美国SpaceX公司星链(Starlink)卫星互联网星座的一员,属于低轨通信卫星。星链项目旨在通过大规模低轨卫星部署,为全球尤其是偏远地区提供高速低延迟的宽带互联网服务。该卫星运行于近地轨道,继承了星链卫星小型化设计,依托星座组网实现全球覆盖,助力SpaceX扩展全球卫星通信网络规模,目前已随星座部署计划进入预定轨道,参与提供天地一体化互联网接入服务,同时其部署也引发了太空拥堵等相关讨论。

Basic Information
目录编号:
68823
目录名称:
STARLINK-37410
国际标识:
2026-089X
轨道中心:
EARTH
卫星名称:
星链-37410
卫星全名:
星链-37410(STARLINK-37410)
卫星状态:
在轨 (已飞行134 天)
发射日期:
2026-04-23 UTC
国别 :
美国 (US)
星等 :
--
Orbit Information
数据来源 国际轨道数据 AOE轨道数据
星历时间 2026-09-03T10:01:55+0800
1天前
查看轨道信息
2026-08-31T23:00:00+0800
3天前
查看轨道信息
半长轴 6843.683km 6843.786km
偏心率 0.0001311 0.0000941
轨道倾角 97.286° 97.284°
近地点辐角 100.175° 98.649°
升交点赤经 92.146° 89.722°
平近点角 259.964° 12.008°
近地点 464.648km 465.004km
远地点 466.444km 466.294km
周期 93.906分钟 93.908分钟
每日圈数 15.334442 15.334095
Detailed Information
固有亮度:
5
最大亮度:
2.5
卫星平台:
Starlink V1.0
覆盖范围:
全球
运营商:
太空探索技术公司
运营商所在国:
美国
制造商(研发单位):
太空探索技术公司
制造商所在国:
美国
使用方式:
暂无
Satellite Introduction
Starlink 计划是 SpaceX 推出的全球卫星互联网项目,通过发射低轨道卫星,为全球尤其是偏远地区提供高速、低延迟的互联网服务。自 2019 年起,Starlink 已部署数千颗卫星,旨在缩小全球数字鸿沟,推动互联网普及。该项目还为军事、航空等行业提供通信支持,带来广泛经济效益。
2D Orbit Map
3D Orbit Map
Orbit Altitude Analysis Chart
Orbit Inclination Analysis Chart
Orbit Comprehensive Analysis Chart
View Comprehensive Chart
Conjunction Data List
Event ID Objects TCA Miss Dist (km) Collision Risk Probability Collision Risk Index (CRI) Action
CDM_260830-175704-743606-882326
OBJECT Z (47436)
2026-08-30T
17:57:52+0000
0.457 km
远距离
2.511023E-4 高风险 0.83
CDM_260904-082204-836806-882322
2026-09-04T
08:22:57+0000
0.602 km
远距离
1.264759E-4 高风险 0.77
CDM_260904-084205-270006-882321
2026-09-04T
08:42:05+0000
1.198 km
极远距离
8.333055E-6 低风险 0.53
CDM_260904-222304-379906-882322
HAWK-C (43799)
2026-09-04T
22:23:45+0000
1.976 km
极远距离
2.94304E-6 低风险 0.44
CDM_260905-091905-717806-882321
OBJECT N (57178)
2026-09-05T
09:19:03+0000
2.256 km
极远距离
2.097123E-6 低风险 0.41
CDM_260904-154606-029606-882321
2026-09-04T
15:46:10+0000
2.985 km
极远距离
1.328844E-6 低风险 0.37
CDM_260904-075505-270006-882321
2026-09-04T
07:55:08+0000
2.410 km
极远距离
1.180822E-6 低风险 0.36